STARLINK-31964, 59895

Orbit data source: Space-Track

STARLINK-31964, 59895 is a payload satellite owned by SpaceX/Seattle (US) in LEO that was launched on Tue, 28 May 2024 UTC via an FALCON 9 launch vehicle from the Air Force Eastern Test Range (AFETR). Payload-class satellites include a variety of spacecraft equipped with specific instruments for various scientific and technological missions. These include communications satellites like Starlink; space stations such as the ISS; scientific satellites like the Hubble; Earth observation satellites from companies like Planet Labs, Umbra, and HawkEye 360; GPS; miniature CubeSats for education and research; and military/defense satellites.

Loading next visibility...
Identifier
59895, 2024-100L
Orbit
LEO
Last TLE update
22 hours ago
Origin
Manufacturer
SpaceX/Seattle
Mission
Operational spacecraft
Bus & Motor
STARLINK V2M, Unknown motor
Mass
730 kg wet, ~700 kg dry
Launch date (UTC)
2024-05-28 (11 months ago)
Launch vehicle
FALCON 9
Launch site
Air Force Eastern Test Range (AFETR)
Object type
Payload
Rocket body
Debris
Shape & HBR
Unknown
Radar Cross Section
Large (>1 m²)

Expand to show TLE details & history

TLE from 22 hours ago
0 STARLINK-31964
1 59895U 24100L   25128.48413506  .00000088  00000-0  12720-4 0  9994
2 59895  42.9986  48.6943 0001439 280.0712  79.9977 15.27584611 54431
Epoch: 2025-05-08T11:37Z
Definitive object data (Epoch: 2025-05-08T11:37:09.269Z)
Latitude
-0.00002°
Longitude
7.85169°
Altitude
482.639 km
Speed
7.626 km/s
True Right ascension
03h 14m 46s
True Declination
0° 00' 00"
Sunlit
Object was in daylight at TLE epoch
Visualization TLE readout
Latitude
-9.77772°
Longitude
-7.89631°
Altitude
484.095 km
Speed
7.625 km/s
Apparent Right ascension
03h 38m 24s
Apparent Declination
-26° 28' 17"
Sunlit
Object is in daylight
Visualization observer readout
Local Sidereal Time
17:40:55
Azimuth
71.527° E
Elevation
-61.259°
Doppler factor
1
Orbital elements
Apogee altitude
485.968 km
Perigee altitude
483.993 km
Semi-major axis
6,863.118 km
Eccentricity
0.0001439
Inclination
42.9986°
RAAN
48.6943°
Arg. of periapsis
280.0712°
True anomaly
80.01394°
Mean anomaly
79.9977°
Eccentric anomaly
80.00582°
Mean motion
3.81734 °/min
BSTAR
0.00001272
Orbital period
94.31 mins
Loading maneuver chart data...
Loading SW <> Apogee altitude chart data...
Loading historical data...
Loading historical data...
Loading historical data...
Loading historical data...
Loading historical data...
Loading historical data...
Loading historical data...

STARLINK-31964 Visibility forecast

Observer location: undefined°, undefined°

Span
Click to sort rows by Start time (UTC) header in descending order
Start Az.
Max El. time (UTC)
Max El. Az.
Max El.
End time (UTC)
End Az.
4 mins2025-05-09 20:45:35.198Z177.012° S2025-05-09 20:47:35.198Z140.536° SSE16.286°2025-05-09 20:49:35.198Z105.757° ESE
6 mins2025-05-09 22:23:35.198Z240.346° WSW2025-05-09 22:25:35.198Z209.923° SW42.109°2025-05-09 22:29:35.198Z73.895° E
6 mins2025-05-10 00:02:35.198Z283.529° WNW2025-05-10 00:04:35.198Z325.335° NNW36.866°2025-05-10 00:08:35.198Z73.418° E
6 mins2025-05-10 01:41:35.198Z291.689° WNW2025-05-10 01:44:35.198Z52.171° ENE42.213°2025-05-10 01:47:35.198Z97.529° ESE
4 mins2025-05-10 03:21:35.198Z255.159° W2025-05-10 03:22:35.198Z228.594° WSW28.589°2025-05-10 03:25:35.198Z151.146° SSE
|